This demonstration page uses our WeatherBlox Daily Observations layout. Learn more.

Left ArrowRight Arrow

34.16533, -84.80231

Hourly Observations for March 2, 2022

Temp ( °F °C ) Dew Point ( °F °C ) Humidity (%) Winds ( mph kmh ) Pressure ( in mb ) Visibility ( mi km ) Precip ( " mm )
12:15 am 00:15 Clear 43 6 36 2 76 76 Calm 30.19 1022 10 16 0.00 0.00
12:35 am 00:35 Clear 41 5 37 3 87 87 Calm 30.19 1022 10 16 0.00 0.00
12:55 am 00:55 Clear 39 4 37 3 93 93 Calm 30.20 1023 10 16 0.00 0.00
1:15 am 01:15 Clear 41 5 37 3 87 87 Calm 30.19 1022 10 16 0.00 0.00
1:35 am 01:35 Clear 39 4 37 3 93 93 Calm 30.21 1023 10 16 0.00 0.00
1:55 am 01:55 Clear 39 4 36 2 87 87 Calm 30.20 1023 10 16 0.00 0.00
2:15 am 02:15 Clear 39 4 36 2 87 87 Calm 30.20 1023 10 16 0.00 0.00
2:35 am 02:35 Clear 39 4 36 2 87 87 Calm 30.20 1023 10 16 0.00 0.00
2:55 am 02:55 Clear 37 3 36 2 93 93 Calm 30.19 1022 10 16 0.00 0.00
3:15 am 03:15 Clear 37 3 36 2 93 93 Calm 30.19 1022 10 16 0.00 0.00
3:35 am 03:35 Clear 37 3 36 2 93 93 Calm 30.19 1022 10 16 0.00 0.00
3:55 am 03:55 Clear 37 3 36 2 93 93 Calm 30.18 1022 10 16 0.00 0.00
4:15 am 04:15 Clear 37 3 36 2 93 93 Calm 30.18 1022 10 16 0.00 0.00
4:35 am 04:35 Clear 36 2 34 1 93 93 Calm 30.19 1022 10 16 0.00 0.00
4:55 am 04:55 Clear 36 2 34 1 93 93 Calm 30.19 1022 10 16 0.00 0.00
5:15 am 05:15 Clear 36 2 34 1 93 93 Calm 30.19 1022 10 16 0.00 0.00
5:35 am 05:35 Clear 36 2 34 1 93 93 Calm 30.20 1023 10 16 0.00 0.00
5:55 am 05:55 Clear 36 2 34 1 93 93 Calm 30.20 1023 10 16 0.00 0.00
6:15 am 06:15 Clear 36 2 34 1 93 93 Calm 30.20 1023 10 16 0.00 0.00
6:35 am 06:35 Clear 36 2 34 1 93 93 Calm 30.20 1023 10 16 0.00 0.00
6:55 am 06:55 Clear 36 2 34 1 93 93 Calm 30.21 1023 10 16 0.00 0.00
7:15 am 07:15 Sunny 36 2 34 1 93 93 Calm 30.21 1023 10 16 0.00 0.00
7:35 am 07:35 Sunny 36 2 34 1 93 93 Calm 30.22 1023 10 16 0.00 0.00
7:55 am 07:55 Sunny 36 2 36 2 100 100 Calm 30.22 1023 10 16 0.00 0.00
8:15 am 08:15 Sunny 37 3 36 2 93 93 Calm 30.22 1023 10 16 0.00 0.00
8:35 am 08:35 Sunny 41 5 37 3 87 87 Calm 30.22 1024 10 16 0.00 0.00
8:55 am 08:55 Sunny 45 7 37 3 76 76 Calm 30.22 1023 10 16 0.00 0.00
9:15 am 09:15 Sunny 46 8 39 4 76 76 Calm 30.22 1023 10 16 0.00 0.00
9:35 am 09:35 Sunny 50 10 39 4 67 67 Calm 30.21 1023 10 16 0.00 0.00
9:55 am 09:55 Sunny 54 12 39 4 58 58 Calm 30.20 1023 10 16 0.00 0.00
10:15 am 10:15 Sunny 57 14 39 4 51 51 WNW 5 7 30.20 1023 10 16 0.00 0.00
10:35 am 10:35 Sunny 61 16 37 3 42 42 W 7 11 30.19 1022 10 16 0.00 0.00
10:55 am 10:55 Sunny 63 17 36 2 37 37 VRB 6 9 30.19 1022 10 16 0.00 0.00
11:15 am 11:15 Sunny 63 17 36 2 37 37 WSW 6 9 30.19 1022 10 16 0.00 0.00
11:35 am 11:35 Sunny 64 18 36 2 34 34 W 6 9 30.19 1022 10 16 0.00 0.00
11:55 am 11:55 Sunny 66 19 36 2 32 32 W 5 7 30.17 1022 10 16 0.00 0.00
12:15 pm 12:15 Sunny 68 20 34 1 28 28 Calm 30.16 1021 10 16 0.00 0.00
12:35 pm 12:35 Sunny 68 20 36 2 30 30 Calm 30.15 1021 10 16 0.00 0.00
1:15 pm 13:15 Sunny 70 21 34 1 27 27 W 6 9 30.14 1021 10 16 0.00 0.00
1:35 pm 13:35 Sunny 72 22 34 1 25 25 VRB 5 7 30.13 1020 10 16 0.00 0.00
1:55 pm 13:55 Sunny 73 23 34 1 23 23 W 5 7 30.11 1020 10 16 0.00 0.00
2:15 pm 14:15 Sunny 73 23 34 1 23 23 W 7 11 30.10 1019 10 16 0.00 0.00
2:35 pm 14:35 Sunny 75 24 28 -2 18 18 W 9 15 30.09 1019 10 16 0.00 0.00
2:55 pm 14:55 Sunny 75 24 30 -1 19 19 WNW 5 7 30.08 1019 10 16 0.00 0.00
3:15 pm 15:15 Sunny 75 24 27 -3 16 16 VRB 7 11 30.08 1019 10 16 0.00 0.00
3:35 pm 15:35 Sunny 75 24 25 -4 15 15 W 10 17 30.08 1019 10 16 0.00 0.00
3:55 pm 15:55 Sunny 75 24 23 -5 14 14 W 8 13 30.07 1018 10 16 0.00 0.00
4:15 pm 16:15 Sunny 75 24 25 -4 15 15 W 9 15 30.07 1018 10 16 0.00 0.00
4:35 pm 16:35 Sunny 75 24 28 -2 18 18 W 8 13 30.07 1018 10 16 0.00 0.00
4:55 pm 16:55 Sunny 75 24 30 -1 19 19 W 13 20 30.07 1018 10 16 0.00 0.00
5:15 pm 17:15 Sunny 75 24 30 -1 19 19 W 8 13 30.07 1018 10 16 0.00 0.00
5:35 pm 17:35 Sunny 73 23 32 0 22 22 W 8 13 30.08 1019 10 16 0.00 0.00
5:55 pm 17:55 Sunny 73 23 30 -1 20 20 W 9 15 30.08 1019 10 16 0.00 0.00
6:15 pm 18:15 Sunny 73 23 30 -1 20 20 WSW 6 9 30.08 1019 10 16 0.00 0.00
6:35 pm 18:35 Sunny 70 21 32 0 25 25 SW 3 6 30.09 1019 10 16 0.00 0.00
6:55 pm 18:55 Clear 70 21 32 0 25 25 Calm 30.09 1019 10 16 0.00 0.00
7:15 pm 19:15 Clear 64 18 34 1 32 32 Calm 30.11 1020 10 16 0.00 0.00
7:35 pm 19:35 Mostly Clear 64 18 34 1 32 32 Calm 30.11 1020 10 16 0.00 0.00
7:55 pm 19:55 Mostly Clear 63 17 36 2 37 37 Calm 30.11 1020 10 16 0.00 0.00
8:15 pm 20:15 Clear 61 16 36 2 39 39 Calm 30.12 1020 10 16 0.00 0.00
8:35 pm 20:35 Clear 57 14 39 4 51 51 ESE 3 6 30.13 1020 10 16 0.00 0.00
8:55 pm 20:55 Clear 57 14 39 4 51 51 Calm 30.14 1021 10 16 0.00 0.00
9:15 pm 21:15 Clear 55 13 39 4 55 55 Calm 30.14 1021 10 16 0.00 0.00
9:35 pm 21:35 Clear 54 12 39 4 58 58 Calm 30.14 1021 10 16 0.00 0.00
9:55 pm 21:55 Clear 52 11 41 5 67 67 ENE 6 9 30.15 1021 10 16 0.00 0.00
10:15 pm 22:15 Clear 52 11 39 4 62 62 Calm 30.16 1021 10 16 0.00 0.00
10:35 pm 22:35 Clear 52 11 39 4 62 62 Calm 30.16 1021 10 16 0.00 0.00
10:55 pm 22:55 Clear 50 10 39 4 67 67 Calm 30.16 1021 10 16 0.00 0.00
11:15 pm 23:15 Clear 50 10 39 4 67 67 Calm 30.15 1021 10 16 0.00 0.00
11:35 pm 23:35 Clear 50 10 39 4 67 67 Calm 30.15 1021 10 16 0.00 0.00
11:55 pm 23:55 Clear 48 9 41 5 76 76 Calm 30.15 1021 10 16 0.00 0.00

Powered by AerisWeather